| time (UTC) | temp F | wind direction | speed knots | gust knots | rain 1hr in | rain 24hr in | rain mn in | humidity % | barometer mb |
| 20260506013340 | 42 | 19 | 0.0 | 1.7 | 0.00 | 0.00 | 0.00 | 56 | 1011.7 |
| 20260506012607 | 42 | 88 | 0.0 | 2.6 | 0.00 | 0.00 | 0.00 | 55 | 1011.6 |
| 20260506012106 | 42 | 15 | 0.0 | 2.6 | 0.00 | 0.00 | 0.00 | 58 | 1011.6 |
| 20260506011606 | 43 | 22 | 0.0 | 0.0 | 0.00 | 0.00 | 0.00 | 57 | 1011.6 |
| 20260506011106 | 44 | 9 | 0.0 | 1.7 | 0.00 | 0.00 | 0.00 | 54 | 1011.5 |
| 20260506010606 | 44 | 89 | 0.0 | 1.7 | 0.00 | 0.00 | 0.00 | 53 | 1011.4 |
| 20260506010107 | 44 | 134 | 0.0 | 2.6 | 0.00 | 0.00 | 0.00 | 53 | 1011.4 |
| 20260506005607 | 45 | 335 | 0.0 | 3.5 | 0.00 | 0.00 | 0.00 | 52 | 1011.4 |
| 20260506005108 | 45 | 298 | 0.0 | 3.5 | 0.00 | 0.00 | 0.00 | 52 | 1011.3 |
| 20260506004607 | 46 | 132 | 0.0 | 0.9 | 0.00 | 0.00 | 0.00 | 52 | 1011.3 |
| 20260506004107 | 46 | 162 | 0.0 | 0.9 | 0.00 | 0.00 | 0.00 | 51 | 1011.2 |
| 20260506003842 | 47 | 131 | 0.0 | 1.7 | 0.00 | 0.00 | 0.00 | 51 | 1011.1 |
| 20260506003106 | 47 | 79 | 0.0 | 2.6 | 0.00 | 0.00 | 0.00 | 50 | 1011.0 |
| 20260506002603 | 48 | 222 | 0.0 | 2.6 | 0.00 | 0.00 | 0.00 | 49 | 1010.8 |
| 20260506002102 | 48 | 116 | 0.0 | 2.6 | 0.00 | 0.00 | 0.00 | 48 | 1010.9 |
| 20260506001602 | 49 | 6 | 0.0 | 2.6 | 0.00 | 0.00 | 0.00 | 47 | 1010.8 |
| 20260506001340 | 48 | 173 | 0.0 | 3.5 | 0.00 | 0.00 | 0.00 | 48 | 1010.8 |
| 20260506000557 | 49 | 319 | 0.9 | 3.5 | 0.00 | 0.00 | 0.00 | 47 | 1010.8 |
| 20260506000055 | 49 | 126 | 0.9 | 5.2 | 0.00 | 0.00 | 0.00 | 47 | 1010.7 |
| 20260505235555 | 50 | 184 | 0.0 | 5.2 | 0.00 | 0.00 | 0.00 | 45 | 1010.6 |
| 20260505235055 | 50 | 116 | 0.0 | 2.6 | 0.00 | 0.00 | 0.00 | 44 | 1010.6 |
| 20260505234554 | 50 | 135 | 0.0 | 5.2 | 0.00 | 0.00 | 0.00 | 43 | 1010.5 |
| 20260505234053 | 50 | 100 | 0.0 | 5.2 | 0.00 | 0.00 | 0.00 | 45 | 1010.5 |
| 20260505233551 | 50 | 147 | 0.0 | 0.9 | 0.00 | 0.00 | 0.00 | 47 | 1010.5 |
| 20260505233051 | 50 | 134 | 0.0 | 6.1 | 0.00 | 0.00 | 0.00 | 46 | 1010.4 |
| 20260505232824 | 51 | 139 | 0.0 | 6.1 | 0.00 | 0.00 | 0.00 | 43 | 1010.4 |
| 20260505232050 | 51 | 146 | 0.0 | 3.5 | 0.00 | 0.00 | 0.00 | 46 | 1010.4 |
| 20260505231551 | 50 | 170 | 0.0 | 3.5 | 0.00 | 0.00 | 0.00 | 45 | 1010.4 |
| 20260505231049 | 50 | 125 | 0.0 | 1.7 | 0.00 | 0.00 | 0.00 | 46 | 1010.3 |
| 20260505230550 | 49 | 323 | 0.0 | 1.7 | 0.00 | 0.00 | 0.00 | 46 | 1010.4 |
| 20260505230049 | 49 | 101 | 0.0 | 1.7 | 0.00 | 0.00 | 0.00 | 47 | 1010.3 |
| 20260505225550 | 49 | 91 | 0.0 | 2.6 | 0.00 | 0.00 | 0.00 | 46 | 1010.4 |
| 20260505225048 | 50 | 22 | 0.0 | 2.6 | 0.00 | 0.00 | 0.00 | 43 | 1010.3 |
| 20260505224548 | 51 | 287 | 0.0 | 2.6 | 0.00 | 0.00 | 0.00 | 43 | 1010.3 |
| 20260505224049 | 52 | 314 | 0.0 | 2.6 | 0.00 | 0.00 | 0.00 | 45 | 1010.2 |
| 20260505223817 | 51 | 119 | 0.0 | 0.9 | 0.00 | 0.00 | 0.00 | 47 | 1010.2 |
| 20260505223045 | 49 | 115 | 0.0 | 2.6 | 0.00 | 0.00 | 0.00 | 44 | 1010.2 |
| 20260505222545 | 50 | 323 | 0.9 | 4.3 | 0.00 | 0.00 | 0.00 | 47 | 1010.3 |
| 20260505222043 | 50 | 124 | 0.9 | 5.2 | 0.00 | 0.00 | 0.00 | 45 | 1010.2 |
| 20260505221542 | 49 | 224 | 0.9 | 6.1 | 0.00 | 0.00 | 0.00 | 45 | 1010.3 |
| 20260505221042 | 49 | 136 | 0.9 | 6.1 | 0.00 | 0.00 | 0.00 | 46 | 1010.2 |
| 20260505220544 | 49 | 149 | 0.9 | 4.3 | 0.00 | 0.00 | 0.00 | 48 | 1010.3 |
| 20260505220312 | 49 | 170 | 2.6 | 8.7 | 0.00 | 0.00 | 0.00 | 44 | 1010.3 |
| 20260505215540 | 50 | 180 | 3.5 | 8.7 | 0.00 | 0.00 | 0.00 | 44 | 1010.3 |
| 20260505215312 | 50 | 156 | 3.5 | 7.0 | 0.00 | 0.00 | 0.00 | 46 | 1010.4 |
| 20260505214542 | 51 | 189 | 4.3 | 7.0 | 0.00 | 0.00 | 0.00 | 44 | 1010.5 |
| 20260505214314 | 52 | 201 | 4.3 | 7.0 | 0.00 | 0.00 | 0.00 | 44 | 1010.4 |
| 20260505213540 | 51 | 163 | 3.5 | 8.7 | 0.00 | 0.00 | 0.00 | 44 | 1010.4 |
| 20260505213041 | 51 | 191 | 1.7 | 8.7 | 0.00 | 0.00 | 0.00 | 43 | 1010.4 |
| 20260505212534 | 51 | 214 | 2.6 | 6.1 | 0.00 | 0.00 | 0.00 | 46 | 1010.4 |
| 20260505212027 | 50 | 190 | 4.3 | 9.6 | 0.00 | 0.00 | 0.00 | 44 | 1010.4 |
| 20260505211522 | 51 | 152 | 4.3 | 9.6 | 0.00 | 0.00 | 0.00 | 43 | 1010.5 |
| 20260505211015 | 52 | 228 | 1.7 | 7.8 | 0.00 | 0.00 | 0.00 | 42 | 1010.4 |
| 20260505210509 | 52 | 203 | 1.7 | 6.1 | 0.00 | 0.00 | 0.00 | 48 | 1010.6 |
| 20260505210005 | 51 | 277 | 1.7 | 6.1 | 0.00 | 0.00 | 0.00 | 46 | 1010.6 |
| 20260505205729 | 51 | 184 | 0.9 | 6.1 | 0.00 | 0.00 | 0.00 | 46 | 1010.5 |
| 20260505204958 | 52 | 203 | 0.9 | 6.1 | 0.00 | 0.00 | 0.00 | 46 | 1010.6 |
| 20260505204458 | 52 | 188 | 1.7 | 6.1 | 0.00 | 0.00 | 0.00 | 46 | 1010.7 |
| 20260505204000 | 51 | 36 | 3.5 | 7.8 | 0.00 | 0.00 | 0.00 | 46 | 1010.6 |
| 20260505203458 | 51 | 207 | 2.6 | 7.8 | 0.00 | 0.00 | 0.00 | 44 | 1010.5 |
| 20260505202956 | 51 | 120 | 2.6 | 6.1 | 0.00 | 0.00 | 0.00 | 45 | 1010.6 |
| 20260505202457 | 50 | 208 | 2.6 | 7.0 | 0.00 | 0.00 | 0.00 | 44 | 1010.7 |
| 20260505201956 | 51 | 197 | 1.7 | 7.0 | 0.00 | 0.00 | 0.00 | 46 | 1010.7 |
| 20260505201457 | 51 | 118 | 1.7 | 5.2 | 0.00 | 0.00 | 0.00 | 47 | 1010.8 |
| 20260505200956 | 51 | 217 | 0.9 | 5.2 | 0.00 | 0.00 | 0.00 | 43 | 1010.7 |
| 20260505200457 | 52 | 213 | 1.7 | 7.0 | 0.00 | 0.00 | 0.00 | 47 | 1010.8 |
| 20260505195956 | 52 | 143 | 1.7 | 7.0 | 0.00 | 0.00 | 0.00 | 42 | 1010.8 |
| 20260505195454 | 53 | 197 | 0.9 | 6.1 | 0.00 | 0.00 | 0.00 | 44 | 1010.7 |
| 20260505194955 | 52 | 47 | 0.9 | 6.1 | 0.00 | 0.00 | 0.00 | 47 | 1010.7 |
| 20260505194457 | 51 | 273 | 1.7 | 6.1 | 0.00 | 0.00 | 0.00 | 47 | 1010.6 |
| 20260505193952 | 51 | 99 | 2.6 | 6.1 | 0.00 | 0.00 | 0.00 | 45 | 1010.7 |
| 20260505193445 | 51 | 221 | 2.6 | 6.1 | 0.00 | 0.00 | 0.00 | 44 | 1010.6 |
| 20260505192940 | 51 | 193 | 1.7 | 6.1 | 0.00 | 0.00 | 0.00 | 43 | 1010.7 |
| 20260505192434 | 51 | 121 | 1.7 | 6.1 | 0.00 | 0.00 | 0.00 | 45 | 1010.7 |
| 20260505191927 | 51 | 169 | 1.7 | 6.1 | 0.00 | 0.00 | 0.00 | 47 | 1010.7 |
| 20260505191421 | 51 | 169 | 1.7 | 5.2 | 0.00 | 0.00 | 0.00 | 45 | 1010.8 |
| 20260505190916 | 51 | 102 | 0.9 | 5.2 | 0.00 | 0.00 | 0.00 | 45 | 1010.7 |
| 20260505190411 | 51 | 197 | 0.9 | 5.2 | 0.00 | 0.00 | 0.00 | 44 | 1010.7 |
| 20260505185911 | 51 | 214 | 0.9 | 3.5 | 0.00 | 0.00 | 0.00 | 45 | 1010.8 |
| 20260505185409 | 51 | 226 | 0.9 | 3.5 | 0.00 | 0.00 | 0.00 | 45 | 1010.8 |
| 20260505184908 | 50 | 338 | 0.9 | 4.3 | 0.00 | 0.00 | 0.00 | 44 | 1010.8 |
| 20260505184639 | 50 | 68 | 0.9 | 4.3 | 0.00 | 0.00 | 0.00 | 44 | 1010.7 |
| 20260505183907 | 50 | 126 | 0.9 | 4.3 | 0.00 | 0.00 | 0.00 | 46 | 1010.8 |
| 20260505183406 | 50 | 193 | 0.9 | 7.0 | 0.00 | 0.00 | 0.00 | 44 | 1010.8 |
| 20260505182903 | 50 | 309 | 2.6 | 7.0 | 0.00 | 0.00 | 0.00 | 44 | 1010.7 |
| 20260505182402 | 50 | 147 | 2.6 | 6.1 | 0.00 | 0.00 | 0.00 | 46 | 1010.7 |
| 20260505182134 | 50 | 203 | 3.5 | 7.0 | 0.00 | 0.00 | 0.00 | 46 | 1010.7 |
| 20260505181401 | 49 | 167 | 2.6 | 7.0 | 0.00 | 0.00 | 0.00 | 45 | 1010.7 |
| 20260505180903 | 49 | 193 | 0.9 | 7.0 | 0.00 | 0.00 | 0.00 | 45 | 1010.8 |
| 20260505180401 | 49 | 153 | 1.7 | 7.0 | 0.00 | 0.00 | 0.00 | 46 | 1010.7 |
| 20260505175901 | 49 | 130 | 3.5 | 7.0 | 0.00 | 0.00 | 0.00 | 48 | 1010.7 |
| 20260505175400 | 49 | 222 | 2.6 | 7.0 | 0.00 | 0.00 | 0.00 | 45 | 1010.7 |
| 20260505174900 | 49 | 214 | 0.9 | 4.3 | 0.00 | 0.00 | 0.00 | 45 | 1010.7 |
| 20260505174401 | 48 | 116 | 2.6 | 8.7 | 0.00 | 0.00 | 0.00 | 44 | 1010.7 |
| 20260505173859 | 49 | 215 | 3.5 | 8.7 | 0.00 | 0.00 | 0.00 | 44 | 1010.8 |
| 20260505173630 | 49 | 232 | 3.5 | 8.7 | 0.00 | 0.00 | 0.00 | 46 | 1010.7 |
| 20260505172853 | 50 | 153 | 1.7 | 8.7 | 0.00 | 0.00 | 0.00 | 45 | 1010.6 |
| 20260505172620 | 49 | 229 | 0.9 | 5.2 | 0.00 | 0.00 | 0.00 | 47 | 1010.8 |
| 20260505171841 | 49 | 98 | 1.7 | 8.7 | 0.00 | 0.00 | 0.00 | 43 | 1010.7 |
| 20260505171334 | 50 | 293 | 2.6 | 8.7 | 0.00 | 0.00 | 0.00 | 43 | 1010.8 |
| 20260505170829 | 52 | 110 | 3.5 | 8.7 | 0.00 | 0.00 | 0.00 | 41 | 1010.7 |
| 20260505170323 | 52 | 129 | 3.5 | 8.7 | 0.00 | 0.00 | 0.00 | 47 | 1010.7 |
| 20260505165817 | 51 | 165 | 3.5 | 7.8 | 0.00 | 0.00 | 0.00 | 52 | 1010.6 |
| 20260505165542 | 50 | 163 | 2.6 | 7.8 | 0.00 | 0.00 | 0.00 | 49 | 1010.8 |
| 20260505164806 | 49 | 203 | 2.6 | 7.8 | 0.00 | 0.00 | 0.00 | 50 | 1010.8 |
| 20260505164259 | 48 | 193 | 2.6 | 7.0 | 0.00 | 0.00 | 0.00 | 48 | 1010.7 |
| 20260505163753 | 49 | 186 | 2.6 | 6.1 | 0.00 | 0.00 | 0.00 | 45 | 1010.6 |
| 20260505163247 | 49 | 191 | 2.6 | 6.1 | 0.00 | 0.00 | 0.00 | 48 | 1010.6 |
| 20260505163009 | 49 | 128 | 3.5 | 9.6 | 0.00 | 0.00 | 0.00 | 49 | 1010.7 |
| 20260505162842 | 49 | 210 | 2.6 | 6.1 | 0.00 | 0.00 | 0.00 | 49 | 1010.6 |
| 20260505161959 | 49 | 103 | 3.5 | 9.6 | 0.00 | 0.00 | 0.00 | 49 | 1010.7 |
| 20260505161223 | 49 | 149 | 2.6 | 9.6 | 0.00 | 0.00 | 0.00 | 50 | 1010.6 |
| 20260505160716 | 48 | 153 | 0.9 | 6.1 | 0.00 | 0.00 | 0.00 | 50 | 1010.8 |
| 20260505160210 | 48 | 153 | 2.6 | 7.0 | 0.00 | 0.00 | 0.00 | 48 | 1010.7 |
| 20260505152629 | 46 | 158 | 0.0 | 4.3 | 0.00 | 0.00 | 0.00 | 49 | 1010.8 |
| 20260505152122 | 46 | 88 | 0.9 | 4.3 | 0.00 | 0.00 | 0.00 | 50 | 1010.7 |
| 20260505151617 | 46 | 359 | 1.7 | 5.2 | 0.00 | 0.00 | 0.00 | 47 | 1010.8 |
| 20260505151342 | 47 | 155 | 2.6 | 6.1 | 0.00 | 0.00 | 0.00 | 53 | 1010.6 |
| 20260505150605 | 47 | 233 | 1.7 | 6.1 | 0.00 | 0.00 | 0.00 | 50 | 1010.7 |
| 20260505124819 | 37 | 11 | 0.0 | 3.5 | 0.00 | 0.00 | 0.00 | 65 | 1009.6 |
| 20260505124313 | 36 | 328 | 0.0 | 2.6 | 0.00 | 0.00 | 0.00 | 66 | 1009.6 |
| 20260505123807 | 36 | 109 | 0.0 | 2.6 | 0.00 | 0.00 | 0.00 | 68 | 1009.5 |
| 20260505123300 | 35 | 105 | 0.9 | 4.3 | 0.00 | 0.00 | 0.00 | 69 | 1009.3 |
| 20260505122755 | 35 | 112 | 0.0 | 4.3 | 0.00 | 0.00 | 0.00 | 73 | 1009.2 |
| 20260505122249 | 34 | 114 | 0.0 | 0.9 | 0.00 | 0.00 | 0.00 | 75 | 1009.2 |
| 20260505121743 | 33 | 142 | 0.0 | 0.9 | 0.00 | 0.00 | 0.00 | 77 | 1009.2 |
| 20260505121236 | 33 | 129 | 0.0 | 0.9 | 0.00 | 0.00 | 0.00 | 79 | 1009.2 |
| 20260505120730 | 33 | 150 | 0.0 | 0.0 | 0.00 | 0.00 | 0.00 | 80 | 1009.1 |
| 20260505120225 | 32 | 103 | 0.0 | 0.9 | 0.00 | 0.00 | 0.00 | 81 | 1009.1 |
| 20260505115951 | 32 | 101 | 0.0 | 0.9 | 0.00 | 0.00 | 0.00 | 82 | 1009.0 |
| 20260505115212 | 31 | 122 | 0.0 | 0.9 | 0.00 | 0.00 | 0.00 | 83 | 1008.9 |
| 20260505114707 | 31 | 121 | 0.0 | 0.9 | 0.00 | 0.00 | 0.00 | 83 | 1008.9 |
| 20260505114201 | 31 | 117 | 0.0 | 0.9 | 0.00 | 0.00 | 0.00 | 85 | 1008.8 |
| 20260505113655 | 30 | 141 | 0.0 | 0.0 | 0.00 | 0.00 | 0.00 | 85 | 1008.7 |
| 20260505113421 | 30 | 141 | 0.0 | 0.0 | 0.00 | 0.00 | 0.00 | 84 | 1008.6 |
| 20260505112643 | 30 | 141 | 0.0 | 0.0 | 0.00 | 0.00 | 0.00 | 84 | 1008.6 |
| 20260505112137 | 30 | 141 | 0.0 | 0.0 | 0.00 | 0.00 | 0.00 | 84 | 1008.5 |
| 20260505111859 | 31 | 141 | 0.0 | 0.0 | 0.00 | 0.00 | 0.00 | 83 | 1008.4 |
| 20260505111733 | 30 | 141 | 0.0 | 0.0 | 0.00 | 0.00 | 0.00 | 83 | 1008.5 |
| 20260505110619 | 31 | 141 | 0.0 | 0.9 | 0.00 | 0.00 | 0.00 | 83 | 1008.4 |
| 20260505110113 | 31 | 135 | 0.0 | 0.9 | 0.00 | 0.00 | 0.00 | 83 | 1008.3 |
| 20260505102025 | 33 | 123 | 0.0 | 0.0 | 0.00 | 0.00 | 0.00 | 80 | 1008.0 |
| 20260505101519 | 33 | 123 | 0.0 | 0.9 | 0.00 | 0.00 | 0.00 | 80 | 1008.0 |
| 20260505101013 | 33 | 122 | 0.0 | 1.7 | 0.00 | 0.00 | 0.00 | 80 | 1008.0 |
| 20260505100506 | 33 | 107 | 0.0 | 3.5 | 0.00 | 0.00 | 0.00 | 80 | 1008.0 |
| 20260505100003 | 33 | 330 | 0.0 | 3.5 | 0.00 | 0.00 | 0.00 | 81 | 1008.1 |
| 20260505095455 | 33 | 122 | 0.0 | 0.9 | 0.00 | 0.00 | 0.00 | 81 | 1008.1 |
| 20260505094949 | 33 | 205 | 0.0 | 0.9 | 0.00 | 0.00 | 0.00 | 81 | 1008.1 |
| 20260505094443 | 33 | 205 | 0.0 | 0.9 | 0.00 | 0.00 | 0.00 | 81 | 1008.1 |
| 20260505093937 | 33 | 167 | 0.0 | 0.9 | 0.00 | 0.00 | 0.00 | 80 | 1008.0 |
| 20260505093702 | 33 | 127 | 0.0 | 0.9 | 0.00 | 0.00 | 0.00 | 80 | 1008.0 |
| 20260505092925 | 33 | 207 | 0.0 | 0.0 | 0.00 | 0.00 | 0.00 | 80 | 1007.9 |
| 20260505092418 | 34 | 162 | 0.0 | 0.9 | 0.00 | 0.00 | 0.00 | 79 | 1007.9 |
| 20260505092145 | 34 | 231 | 0.0 | 0.9 | 0.00 | 0.00 | 0.00 | 79 | 1007.8 |
| 20260505091406 | 34 | 169 | 0.0 | 2.6 | 0.00 | 0.00 | 0.00 | 78 | 1007.8 |
| 20260505090901 | 34 | 77 | 0.0 | 2.6 | 0.00 | 0.00 | 0.00 | 78 | 1007.6 |
| 20260505090354 | 34 | 149 | 0.0 | 0.9 | 0.00 | 0.00 | 0.00 | 78 | 1007.6 |
| 20260505085849 | 35 | 153 | 0.0 | 0.9 | 0.00 | 0.00 | 0.00 | 77 | 1007.5 |
| 20260505085343 | 35 | 135 | 0.0 | 0.9 | 0.00 | 0.00 | 0.00 | 77 | 1007.4 |
| 20260505084837 | 35 | 78 | 0.0 | 1.7 | 0.00 | 0.00 | 0.00 | 77 | 1007.4 |
| 20260505084331 | 35 | 136 | 0.0 | 2.6 | 0.00 | 0.00 | 0.00 | 76 | 1007.4 |
| 20260505083825 | 35 | 125 | 0.0 | 2.6 | 0.00 | 0.00 | 0.00 | 76 | 1007.3 |
| 20260505083325 | 35 | 246 | 0.0 | 2.6 | 0.00 | 0.00 | 0.00 | 76 | 1007.3 |
| 20260505082821 | 35 | 289 | 0.0 | 0.9 | 0.00 | 0.00 | 0.00 | 76 | 1007.1 |
| 20260505082322 | 35 | 152 | 0.0 | 0.9 | 0.00 | 0.00 | 0.00 | 75 | 1007.1 |
| 20260505081823 | 35 | 150 | 0.0 | 0.0 | 0.00 | 0.00 | 0.00 | 75 | 1007.0 |
| 20260505081551 | 36 | 150 | 0.0 | 0.9 | 0.00 | 0.00 | 0.00 | 74 | 1007.0 |
| 20260505080819 | 36 | 354 | 0.0 | 0.9 | 0.00 | 0.00 | 0.00 | 73 | 1006.9 |
| 20260505080318 | 36 | 98 | 0.0 | 0.9 | 0.00 | 0.00 | 0.00 | 73 | 1006.8 |
| 20260505075820 | 37 | 82 | 0.0 | 2.6 | 0.00 | 0.00 | 0.00 | 72 | 1006.8 |
| 20260505075548 | 37 | 153 | 0.0 | 2.6 | 0.00 | 0.00 | 0.00 | 71 | 1006.9 |
| 20260505074817 | 37 | 141 | 0.0 | 1.7 | 0.00 | 0.00 | 0.00 | 71 | 1006.9 |
| 20260505074318 | 37 | 229 | 0.0 | 1.7 | 0.00 | 0.00 | 0.00 | 70 | 1006.9 |
| 20260505074049 | 38 | 232 | 0.0 | 0.9 | 0.00 | 0.00 | 0.00 | 69 | 1006.9 |
| 20260505073317 | 38 | 158 | 0.0 | 1.7 | 0.00 | 0.00 | 0.00 | 68 | 1006.9 |
| 20260505072816 | 38 | 147 | 0.0 | 1.7 | 0.00 | 0.00 | 0.00 | 67 | 1006.8 |
| 20260505072316 | 39 | 109 | 0.9 | 2.6 | 0.00 | 0.00 | 0.00 | 66 | 1006.8 |
| 20260505071821 | 39 | 160 | 0.9 | 2.6 | 0.00 | 0.00 | 0.00 | 65 | 1006.7 |
| 20260505071816 | 39 | 242 | 0.9 | 2.6 | 0.00 | 0.00 | 0.00 | 65 | 1006.7 |
| 20260505070817 | 39 | 159 | 1.7 | 2.6 | 0.00 | 0.00 | 0.00 | 65 | 1006.7 |
| 20260505070310 | 40 | 194 | 1.7 | 3.5 | 0.00 | 0.00 | 0.00 | 64 | 1006.8 |
| 20260505065805 | 40 | 169 | 0.9 | 3.5 | 0.00 | 0.00 | 0.00 | 64 | 1006.8 |
| 20260505065259 | 40 | 166 | 0.9 | 5.2 | 0.00 | 0.00 | 0.00 | 64 | 1006.7 |
| 20260505064753 | 40 | 165 | 1.7 | 5.2 | 0.00 | 0.00 | 0.00 | 64 | 1006.7 |
| 20260505064247 | 40 | 163 | 1.7 | 3.5 | 0.00 | 0.00 | 0.00 | 63 | 1006.7 |
| 20260505063741 | 40 | 259 | 0.9 | 3.5 | 0.00 | 0.00 | 0.00 | 64 | 1006.7 |
| 20260505063505 | 40 | 212 | 0.9 | 3.5 | 0.00 | 0.00 | 0.00 | 64 | 1006.6 |
| 20260505062729 | 40 | 140 | 0.9 | 2.6 | 0.00 | 0.00 | 0.00 | 64 | 1006.6 |
| 20260505062223 | 40 | 249 | 0.0 | 2.6 | 0.00 | 0.00 | 0.00 | 63 | 1006.7 |
| 20260505061717 | 40 | 124 | 0.9 | 3.5 | 0.00 | 0.00 | 0.00 | 63 | 1006.6 |
| 20260505061210 | 41 | 65 | 1.7 | 4.3 | 0.00 | 0.00 | 0.00 | 61 | 1006.6 |
| 20260505060705 | 41 | 235 | 1.7 | 4.3 | 0.00 | 0.00 | 0.00 | 62 | 1006.6 |
| 20260505060159 | 41 | 175 | 0.9 | 3.5 | 0.00 | 0.00 | 0.00 | 62 | 1006.5 |
| 20260505055653 | 41 | 168 | 0.9 | 2.6 | 0.00 | 0.00 | 0.00 | 62 | 1006.6 |
| 20260505055146 | 41 | 166 | 0.9 | 4.3 | 0.00 | 0.00 | 0.00 | 61 | 1006.5 |
| 20260505054917 | 41 | 177 | 0.9 | 4.3 | 0.00 | 0.00 | 0.00 | 61 | 1006.4 |
| 20260505054144 | 41 | 160 | 1.7 | 3.5 | 0.00 | 0.00 | 0.00 | 61 | 1006.5 |
| 20260505053644 | 41 | 181 | 1.7 | 4.3 | 0.00 | 0.00 | 0.00 | 61 | 1006.4 |
| 20260505053145 | 41 | 238 | 1.7 | 4.3 | 0.00 | 0.00 | 0.00 | 61 | 1006.5 |
| 20260505052643 | 41 | 221 | 1.7 | 3.5 | 0.00 | 0.00 | 0.00 | 62 | 1006.4 |
| 20260505052145 | 41 | 179 | 0.9 | 3.5 | 0.00 | 0.00 | 0.00 | 62 | 1006.4 |
| 20260505051643 | 41 | 163 | 0.9 | 2.6 | 0.00 | 0.00 | 0.00 | 63 | 1006.2 |
| 20260505051411 | 41 | 108 | 0.9 | 2.6 | 0.00 | 0.00 | 0.00 | 62 | 1006.2 |
| 20260505050639 | 40 | 89 | 0.9 | 1.7 | 0.00 | 0.00 | 0.00 | 64 | 1006.2 |
| 20260505050140 | 41 | 166 | 0.9 | 1.7 | 0.00 | 0.00 | 0.00 | 63 | 1006.2 |
| 20260505041634 | 39 | 215 | 0.0 | 1.7 | 0.00 | 0.00 | 0.00 | 66 | 1006.1 |
| 20260505041135 | 40 | 163 | 0.0 | 1.7 | 0.00 | 0.00 | 0.00 | 66 | 1006.1 |
| 20260505040634 | 40 | 207 | 0.0 | 1.7 | 0.00 | 0.00 | 0.00 | 66 | 1006.0 |
| 20260505040401 | 40 | 172 | 0.0 | 1.7 | 0.00 | 0.00 | 0.00 | 65 | 1006.0 |
| 20260505035629 | 40 | 163 | 0.0 | 1.7 | 0.00 | 0.00 | 0.00 | 66 | 1006.0 |
| 20260505035131 | 40 | 162 | 0.0 | 0.9 | 0.00 | 0.00 | 0.00 | 65 | 1006.0 |
| 20260505034902 | 40 | 205 | 0.0 | 0.9 | 0.00 | 0.00 | 0.00 | 64 | 1006.0 |
| 20260505034357 | 40 | 210 | 0.0 | 1.7 | 0.00 | 0.00 | 0.00 | 64 | 1006.0 |
| 20260505033624 | 41 | 194 | 0.9 | 1.7 | 0.00 | 0.00 | 0.00 | 63 | 1005.9 |
| 20260505033123 | 41 | 166 | 0.0 | 1.7 | 0.00 | 0.00 | 0.00 | 63 | 1005.9 |
| 20260505032616 | 41 | 205 | 0.0 | 0.9 | 0.00 | 0.00 | 0.00 | 62 | 1005.9 |
| 20260505032110 | 41 | 165 | 0.0 | 1.7 | 0.00 | 0.00 | 0.00 | 62 | 1005.9 |
| 20260505031608 | 42 | 165 | 0.9 | 1.7 | 0.00 | 0.00 | 0.00 | 61 | 1005.9 |
| 20260505031110 | 42 | 174 | 0.9 | 1.7 | 0.00 | 0.00 | 0.00 | 60 | 1005.9 |
| 20260505030608 | 42 | 156 | 0.0 | 1.7 | 0.00 | 0.00 | 0.00 | 60 | 1005.9 |
| 20260505030109 | 42 | 160 | 0.0 | 0.9 | 0.00 | 0.00 | 0.00 | 61 | 1005.8 |
| 20260505025609 | 42 | 208 | 0.0 | 1.7 | 0.00 | 0.00 | 0.00 | 60 | 1005.8 |
| 20260505025109 | 42 | 175 | 0.0 | 1.7 | 0.00 | 0.00 | 0.00 | 59 | 1005.8 |
| 20260505024609 | 43 | 211 | 0.9 | 1.7 | 0.00 | 0.00 | 0.00 | 58 | 1005.7 |
| 20260505024337 | 43 | 163 | 0.9 | 1.7 | 0.00 | 0.00 | 0.00 | 57 | 1005.7 |
| 20260505023608 | 43 | 194 | 0.0 | 1.7 | 0.00 | 0.00 | 0.00 | 57 | 1005.5 |
| 20260505023107 | 43 | 208 | 0.0 | 1.7 | 0.00 | 0.00 | 0.00 | 57 | 1005.5 |
| 20260505022606 | 43 | 166 | 0.0 | 0.9 | 0.00 | 0.00 | 0.00 | 57 | 1005.5 |
| 20260505022107 | 44 | 155 | 0.0 | 0.9 | 0.00 | 0.00 | 0.00 | 57 | 1005.4 |
| 20260505021610 | 44 | 202 | 0.0 | 0.9 | 0.00 | 0.00 | 0.00 | 55 | 1005.3 |
| 20260505021606 | 44 | 189 | 0.0 | 0.9 | 0.00 | 0.00 | 0.00 | 56 | 1005.4 |
| 20260505020602 | 44 | 202 | 0.0 | 1.7 | 0.00 | 0.00 | 0.00 | 54 | 1005.2 |
| 20260505020329 | 44 | 229 | 0.0 | 2.6 | 0.00 | 0.00 | 0.00 | 53 | 1005.2 |
| 20260505015821 | 45 | 258 | 0.9 | 4.3 | 0.00 | 0.00 | 0.00 | 53 | 1005.1 |
| 20260505015045 | 45 | 294 | 0.9 | 4.3 | 0.00 | 0.00 | 0.00 | 52 | 1005.1 |
| 20260505014539 | 45 | 114 | 0.0 | 1.7 | 0.00 | 0.00 | 0.00 | 52 | 1005.0 |
| 20260505014307 | 45 | 224 | 0.0 | 2.6 | 0.00 | 0.00 | 0.00 | 53 | 1004.9 |
| 20260505013527 | 46 | 277 | 0.9 | 2.6 | 0.00 | 0.00 | 0.00 | 52 | 1004.8 |